Location: Buch am Rannenberg
(48.6989°N, 10.6399°E)
Time: 18:47:25
(UTC+00:00)

STARLINK-44 - Pass Details

Date: 07 June 2020
Orbit: 434 x 435 km, 53.0° (Epoch: 10 July)

Event Time Altitude Azimuth Distance (km) Brightness Sun altitude
Exits shadow 00:51:24 - 136° (SE) 1,679 5.9 -15.4°
Enters shadow 01:49:32 -72° 241° (WSW) 12,576 10.4 -10.8°
Maximum altitude 02:28:37 48° 146° (SSE) 601 3.7 -6.6°
